Weather Roundup
Issued by NWS Chicago, IL

Home | Current Version | Previous Version | Text Only | Print | Product List | Glossary On
Versions: 1 2 3 4 5 6 7 8 9 10 11 12 13 14 15 16 17 18 19 20 21 22 23 24 25 26 27 28 29 30 31 32 33 34 35 36 37 38 39 40 41 42 43 44 45 46 47 48 49 50
000
NZUS59 KLOT 180408
HRRLOT

CHICAGO AREA WEATHER ROUNDUP
NATIONAL WEATHER SERVICE CHICAGO/ROMEOVILLE IL
1000 PM CST SAT FEB 17 2018

NOTE: "FAIR" INDICATES FEW OR NO CLOUDS BELOW 12,000 FEET WITH NO
SIGNIFICANT WEATHER AND/OR OBSTRUCTIONS TO VISIBILITY.

* THESE STATIONS ARE NOT UNDER NWS QUALITY CONTROL. THEY ALSO MAY NOT
  REPORT WEATHER SUCH AS PRECIPITATION OR FOG.

ILZ005-006-012>014-019>023-180500-
NORTHEAST ILLINOIS

CITY           SKY/WX    TMP DP  RH WIND       PRES   REMARKS
OHARE          MOCLDY    29  23  78 W10       30.10R WCI  20
MIDWAY         CLOUDY    30  25  81 W14       30.12R WCI  19
AURORA         CLOUDY    28  23  81 W13       30.13R WCI  17
LANSING*       CLOUDY    30  27  88 W13G20    30.13R WCI  20
JOLIET*        CLOUDY    31  27  85 W6        30.15R WCI  25
WAUKEGAN         N/A     28  22  78 W9G17     30.07R WCI  19
DUPAGE AIRPORT CLOUDY    28  25  88 W10       30.11R WCI  19
WHEELING       MOCLDY    29  24  82 W8        30.11R WCI  21
KANKAKEE*      CLOUDY    30  24  79 NW15G23   30.15R WCI  19
MORRIS*        MOCLDY    27  23  85 NW10      30.14R WCI  17
LEWIS AIRPORT* CLOUDY    29  25  86 W16       30.14R WCI  17
NORTHERLY ISL    N/A     29  24  82 W16         N/A  WCI  17
$$

WIZ051-052-058>065-066-070>072-180500-
SOUTHEAST WISCONSIN

CITY           SKY/WX    TMP DP  RH WIND       PRES   REMARKS
MILWAUKEE      MOCLDY    29  23  78 W9        30.06R WCI  20
KENOSHA*         N/A     29  22  75 W16G24    30.07R WCI  17
RACINE*          N/A     29  23  78 W9G22     30.08R WCI  20
BURLINGTON       N/A     27  21  79 W6        30.08R WCI  20
WAUKESHA       CLOUDY    27  21  80 W15       30.07R WCI  15
WEST BEND        N/A     28  23  80 W14G20    30.03R WCI  17
$$

INZ001>003-010>013-019-020-180500-
NORTHWEST INDIANA

CITY           SKY/WX    TMP DP  RH WIND       PRES   REMARKS
GARY*          CLOUDY    32  27  80 W17G31    30.12R WCI  21
MICHIGAN CITY* NOT AVBL
RENSSELAER*    NOT AVBL
VALPARAISO     CLOUDY    31  26  82 W18       30.11R WCI  19
$$

LMZ740>746-180500-
SOUTHERN LAKE MICHIGAN

STATION/POSITION TIME  SKY/WX   TEMP WIND        PRES    VSBY
                                AIR  DIR/SP/G
                 (UTC)          (F)  (DEG/KT/KT) (MB)    (MI)
HARRISON CRIB    0340            31  290/ 19/ 22   N/A
BURNHAM HARBOR   0400            29  280/ 10/ 18   N/A
CALUMET HARBOR   0342            30  250/  5/ 11 1018.7R
BURNS HARBOR     0340            31  290/ 18/ 23 1019.3R
MICHIGAN CITY    0340            30  270/ 21/ 24   N/A
$$

ABBREVIATIONS USED IN REMARKS
   TC - TEMPERATURE IN CELSIUS
  WCI - WIND CHILL INDEX
   HX - HEAT INDEX
  VSB - VISIBILITY
$$




USA.gov is the U.S. government's official web portal to all federal, state and local government web resources and services.